DW0796 Weather Reports


Display with metric or nautical units.
time (UTC)temp
F
wind
direction
speed
MPH
gust
MPH
rain 1hr
in
rain 24hr
in
rain mn
in
humidity
%
barometer
mb
20181018032409 53 294 0.0 2.0 0.00 0.01 0.00 96 1017.6
20181018031410 53 185 0.0 0.0 0.00 0.01 0.00 96 1017.7
20181018030409 53 185 0.0 0.0 0.00 0.01 0.00 96 1017.8
20181018025410 53 185 0.0 0.0 0.00 0.01 0.00 95 1017.9
20181018024409 53 185 0.0 0.0 0.00 0.01 0.00 95 1017.9
20181018023409 53 185 0.0 0.0 0.00 0.01 0.00 94 1017.9
20181018021410 53 185 0.0 1.0 0.00 0.01 0.00 93 1018.0
20181018020410 53 167 0.0 3.0 0.00 0.01 0.00 93 1018.0
20181018015409 53 166 0.0 0.0 0.00 0.01 0.00 93 1017.9
20181018014413 53 166 0.0 0.0 0.00 0.01 0.00 93 1017.8
20181018013408 53 166 0.0 0.0 0.00 0.01 0.00 93 1017.9
20181018012409 53 166 0.0 0.0 0.00 0.01 0.00 92 1018.0
20181018011409 53 166 0.0 0.0 0.00 0.01 0.00 92 1018.0
20181018010409 53 166 0.0 0.0 0.00 0.01 0.00 91 1017.9
20181018005409 53 166 0.0 0.0 0.00 0.01 0.00 90 1018.0
20181018004409 53 166 0.0 0.0 0.00 0.01 0.00 91 1017.9
20181018003409 52 166 0.0 3.0 0.00 0.01 0.00 91 1018.0
20181018002409 52 167 0.0 0.0 0.00 0.01 0.00 90 1018.0
20181018001409 53 167 0.0 0.0 0.00 0.01 0.00 89 1018.0
20181018000409 53 167 0.0 0.0 0.00 0.01 0.00 89 1018.1
20181017235410 53 167 0.0 0.0 0.00 0.01 0.00 89 1018.1
20181017234409 53 167 0.0 1.0 0.00 0.01 0.00 88 1018.1
20181017233409 53 167 0.0 2.0 0.00 0.01 0.00 88 1018.1
20181017232409 54 146 0.0 3.0 0.00 0.01 0.00 87 1018.1
20181017231408 54 146 1.0 5.0 0.00 0.01 0.00 86 1018.3
20181017230409 54 159 0.0 0.0 0.00 0.01 0.00 86 1018.3
20181017225408 54 159 0.0 0.0 0.00 0.01 0.00 86 1018.4
20181017224408 54 159 0.0 0.0 0.00 0.01 0.00 86 1018.4
20181017223408 54 159 0.0 2.0 0.00 0.01 0.00 85 1018.5
20181017222410 54 158 0.0 1.0 0.00 0.01 0.00 85 1018.5
20181017214409 55 162 0.0 0.0 0.00 0.01 0.01 84 1018.6
20181017213410 55 162 0.0 0.0 0.00 0.01 0.01 83 1018.7
20181017212409 55 162 0.0 5.0 0.00 0.01 0.01 83 1018.7
20181017211410 55 167 1.0 3.0 0.00 0.01 0.01 83 1018.7
20181017210409 54 167 0.0 3.0 0.00 0.01 0.01 84 1018.8
20181017205410 54 168 0.0 0.0 0.00 0.01 0.01 85 1018.8
20181017204409 54 168 0.0 5.0 0.00 0.01 0.01 86 1018.7
20181017203408 53 149 0.0 0.0 0.00 0.01 0.01 88 1018.7
20181017202410 53 149 0.0 3.0 0.00 0.01 0.01 91 1018.7
20181017201408 53 150 2.0 7.0 0.00 0.01 0.01 92 1018.8
20181017200409 53 146 1.0 5.0 0.00 0.01 0.01 92 1018.8
20181017195409 53 146 0.0 0.0 0.00 0.01 0.01 91 1018.8
20181017193410 55 146 0.0 0.0 0.00 0.01 0.01 88 1018.7
20181017192408 55 146 0.0 0.0 0.00 0.01 0.01 87 1018.7
20181017190410 56 146 0.0 0.0 0.00 0.01 0.01 87 1018.6
20181017185408 56 146 0.0 0.0 0.00 0.01 0.01 86 1018.7
20181017184410 57 146 0.0 0.0 0.00 0.01 0.01 86 1018.8
20181017183408 57 146 0.0 3.0 0.00 0.01 0.01 87 1018.5
20181017182410 57 146 0.0 0.0 0.00 0.01 0.01 88 1018.5
20181017180410 58 166 3.0 6.0 0.00 0.01 0.01 89 1018.3
20181017175408 58 151 3.0 7.0 0.00 0.01 0.01 89 1018.3
20181017174410 58 149 3.0 6.0 0.00 0.01 0.01 89 1018.3
20181017173409 58 159 4.0 7.0 0.00 0.01 0.01 89 1018.3
20181017172408 58 154 3.0 7.0 0.00 0.01 0.01 89 1018.3
20181017171410 58 155 6.0 7.0 0.00 0.01 0.01 90 1018.3
20181017170409 58 158 5.0 6.0 0.00 0.01 0.01 90 1018.3
20181017165411 58 162 3.0 7.0 0.00 0.01 0.01 91 1018.2
20181017164409 58 147 2.0 7.0 0.00 0.01 0.01 92 1018.2
20181017163410 58 150 2.0 7.0 0.00 0.01 0.01 91 1018.2
20181017162409 58 165 0.0 2.0 0.00 0.01 0.01 91 1018.4
20181017160410 59 165 0.0 3.0 0.00 0.01 0.01 90 1018.3
20181017155409 60 165 0.0 0.0 0.00 0.01 0.01 90 1018.3
20181017154408 60 165 0.0 0.0 0.00 0.01 0.01 90 1018.3
20181017153410 61 165 0.0 0.0 0.00 0.01 0.01 89 1018.4
20181017152410 61 165 0.0 0.0 0.00 0.01 0.01 89 1018.3
20181017151410 61 165 0.0 0.0 0.00 0.01 0.01 88 1018.4
20181017150408 62 165 0.0 1.0 0.00 0.01 0.01 87 1018.4
20181017145409 62 165 0.0 0.0 0.00 0.01 0.01 87 1018.3
20181017144409 63 165 1.0 6.0 0.00 0.01 0.01 86 1018.3
20181017143408 63 161 0.0 5.0 0.00 0.01 0.01 86 1018.5
20181017142410 64 130 0.0 2.0 0.00 0.01 0.01 85 1018.5
20181017141408 64 128 0.0 3.0 0.00 0.01 0.01 84 1018.5
20181017140409 65 151 0.0 3.0 0.00 0.01 0.01 83 1018.5
20181017135408 65 202 0.0 2.0 0.00 0.01 0.01 82 1018.6
20181017134411 65 159 0.0 1.0 0.00 0.01 0.01 82 1018.6
20181017133409 65 159 0.0 2.0 0.00 0.01 0.01 82 1018.6
20181017132408 66 181 0.0 6.0 0.00 0.01 0.01 81 1018.6
20181017131409 66 149 0.0 5.0 0.00 0.01 0.01 80 1018.5
20181017130411 67 192 1.0 6.0 0.00 0.01 0.01 81 1018.6
20181017125410 66 161 0.0 6.0 0.00 0.01 0.01 82 1018.6
20181017124409 66 165 2.0 7.0 0.00 0.01 0.01 82 1018.7
20181017123409 66 142 2.0 7.0 0.00 0.01 0.01 82 1018.6
20181017122408 66 171 0.0 2.0 0.00 0.01 0.01 83 1018.7
20181017121411 65 171 0.0 2.0 0.00 0.01 0.01 84 1018.6
20181017120408 65 171 1.0 5.0 0.00 0.01 0.01 84 1018.6
20181017114409 65 184 2.0 9.0 0.00 0.01 0.01 84 1018.7
20181017113409 65 166 1.0 6.0 0.00 0.01 0.01 85 1018.7
20181017112408 65 156 2.0 7.0 0.00 0.01 0.01 84 1018.9
20181017111410 64 175 0.0 6.0 0.00 0.01 0.01 85 1018.9
20181017110411 64 149 3.0 14.0 0.00 0.01 0.01 85 1018.9
20181017105408 64 133 5.0 10.0 0.00 0.01 0.01 84 1019.0
20181017104409 64 171 1.0 6.0 0.00 0.01 0.01 87 1019.1
20181017103408 64 160 3.0 10.0 0.00 0.01 0.01 85 1019.1
20181017102410 64 144 5.0 10.0 0.00 0.01 0.01 86 1019.1
20181017101408 64 157 2.0 10.0 0.00 0.01 0.01 87 1019.0
20181017100409 63 160 2.0 10.0 0.00 0.01 0.01 87 1019.0
20181017095409 63 157 5.0 9.0 0.00 0.01 0.01 91 1019.0
20181017093409 61 153 2.0 7.0 0.00 0.01 0.01 96 1019.0
20181017091408 60 148 3.0 9.0 0.00 0.01 0.01 98 1019.0
20181017090410 60 147 4.0 9.0 0.00 0.01 0.01 98 1019.0
20181017085408 60 143 3.0 7.0 0.00 0.01 0.01 99 1019.0
20181017084411 60 146 0.0 7.0 0.00 0.01 0.01 99 1019.0
20181017082409 60 162 5.0 7.0 0.00 0.01 0.01 99 1018.9
20181017081409 59 155 3.0 6.0 0.00 0.01 0.01 99 1019.0
20181017080410 59 164 0.0 5.0 0.00 0.01 0.01 99 1019.0
20181017075409 58 158 0.0 3.0 0.00 0.01 0.01 99 1018.9
20181017074408 58 158 0.0 3.0 0.00 0.01 0.01 99 1019.0
20181017073409 56 158 0.0 3.0 0.00 0.01 0.01 99 1018.9
20181017072408 55 158 0.0 2.0 0.00 0.01 0.01 99 1019.0
20181017071410 55 158 0.0 3.0 0.00 0.01 0.01 99 1019.0
20181017070410 55 158 0.0 3.0 0.00 0.01 0.01 99 1019.0
20181017065408 54 158 0.0 0.0 0.00 0.01 0.01 99 1018.9
20181017064408 54 158 0.0 3.0 0.00 0.01 0.01 99 1018.9
20181017063408 53 158 1.0 2.0 0.00 0.01 0.01 99 1018.9
20181017062408 52 158 0.0 0.0 0.00 0.01 0.01 99 1018.8
20181017061408 52 158 0.0 2.0 0.00 0.01 0.01 98 1018.8
20181017060408 50 158 0.0 2.0 0.00 0.01 0.01 98 1018.8
20181017055409 50 158 0.0 0.0 0.00 0.01 0.01 98 1018.8
20181017054410 50 158 0.0 0.0 0.01 0.01 0.01 98 1018.8
20181017053408 50 158 0.0 0.0 0.01 0.01 0.01 98 1018.6
20181017052409 51 158 0.0 0.0 0.01 0.01 0.01 98 1018.6
20181017051408 51 158 0.0 0.0 0.01 0.01 0.01 98 1018.5
20181017050411 50 158 0.0 0.0 0.01 0.01 0.01 98 1018.4
20181017045409 49 158 0.0 0.0 0.01 0.01 0.01 98 1018.4
20181017044409 51 158 0.0 0.0 0.00 0.00 0.00 98 1018.6
20181017043411 52 158 0.0 2.0 0.00 0.00 0.00 99 1018.7
20181017042408 52 158 0.0 3.0 0.00 0.00 0.00 98 1018.7
20181017041408 52 158 0.0 0.0 0.00 0.00 0.00 98 1018.6
20181017040409 52 158 1.0 3.0 0.00 0.00 0.00 99 1018.6
20181017034410 51 157 2.0 3.0 0.00 0.00 0.00 98 1018.5
20181017033408 50 158 2.0 5.0 0.00 0.00 0.00 98 1018.3